Regional Weather Roundup
Issued by NWS

Home | Current Version | Previous Version | Text Only | Print | Product List | Glossary Off
Versions: 1 2 3 4 5 6 7 8 9 10 11 12 13 14 15 16 17 18 19 20 21 22 23 24 25 26 27 28

000
ASUS45 KSLC 221410
RWRUT

UTAH REGIONAL WEATHER ROUNDUP
NATIONAL WEATHER SERVICE SALT LAKE CITY UT
800 AM MDT FRI SEP 22 2017

UTZ001>011-023>025-221500-

NORTHERN UTAH

CITY           SKY/WX    TMP DP  RH WIND       PRES   REMARKS
BRIGHAM CITY   CLOUDY    42  39  88 CALM      29.88R
HILL AFB       LGT RAIN  40  40  97 SW8       29.87R FOG
LOGAN          CLOUDY    42  39  89 CALM      29.86R
OGDEN          LGT RAIN  42  40  92 S6        29.87R
SALT LAKE CITY LGT RAIN  46  40  79 CALM      29.87R
TOOELE VALLEY  CLOUDY    43  41  93 W5        29.88R
WENDOVER       LGT RAIN  40  36  86 W6        29.90R
HEBER CITY     CLOUDY    37  34  87 CALM      29.85R
WEST JORDAN    CLOUDY    43  43 100 CALM      29.88R

$$

UTZ011>015-024>027-221500-

CENTRAL/NORTHEAST UTAH

CITY           SKY/WX    TMP DP  RH WIND       PRES   REMARKS
PROVO AIRPORT  CLOUDY    43  40  89 SE3       29.88R
MOAB/CANYONLAN MOCLDY    65  31  28 W12       29.75R
DELTA          CLOUDY    37  37 100 NE3       29.87S
PRICE          MOCLDY    51  35  54 CALM      29.81R
RICHFIELD      MOCLDY    41  41 100 CALM      29.88R
ROOSEVELT      CLEAR     45  37  76 W6        29.81S
VERNAL         CLEAR     47  45  93 CALM      29.80R

$$

UTZ013>016-019>022-027-221500-

SOUTHERN UTAH

CITY           SKY/WX    TMP DP  RH WIND       PRES   REMARKS
BRYCE CANYON   PTCLDY    43  33  68 S15       29.89R
CEDAR CITY     FOG       36  36 100 NW3       29.85R VSB 1
MILFORD        FOG       38  37  97 CALM      29.86R VSB 3/4
ST GEORGE      MOSUNNY   52  37  56 CALM      29.81R
HANKSVILLE     PTCLDY    63  34  34 SW10      29.80R
KANAB          CLEAR     46  36  66 CALM      29.88R
BLANDING         N/A     54  32  44 S7        29.96R

$$

REGIONAL REPORTS     COLORADO/ARIZONA

CITY           SKY/WX    TMP DP  RH WIND       PRES   REMARKS
CRAIG, CO      SUNNY     57  30  35 W16G24    29.86R
GRAND JUNCTION SUNNY     66  34  30 S12       29.79R
RIFLE, CO      LGT RAIN  64  38  38 S22G31    29.84R
MONTROSE, CO   SUNNY     62  39  42 S10       29.89R
CORTEZ, CO     CLOUDY    64  38  38 S15G24    29.92R
PAGE, AZ       CLOUDY    63  39  41 NW6       29.79R
GRAND CANYON   PTCLDY    50  39  66 SW8       29.92R
KINGMAN, AZ    CLEAR     47  36  65 SE3       29.82R
FLAGSTAFF, AZ  PTCLDY    49  40  71 SW13G24   29.94S

$$

REGIONAL REPORTS    NEVADA/IDAHO/WYOMING

CITY           SKY/WX    TMP DP  RH WIND       PRES   REMARKS
LAS VEGAS, NV  CLEAR     57  27  31 SW5       29.80R
ELY, NY        MOCLDY    28  27  96 S8        29.88R WCI  20
ELKO, NV       CLOUDY    38  35  89 SW3       29.90R
POCATELLO, ID  LGT RAIN  40  38  93 SW13      29.87R WCI  32
BURLEY, ID     CLOUDY    40  35  83 SW12      29.88R WCI  33
FORT BRIDGER,  CLOUDY    40  40 100 S8        29.88R WCI  34
EVANSTON, WY   CLOUDY    34  34 100 SW8       29.85R WCI  27
ROCK SPRINGS,  CLOUDY    37  36  96 E12       29.88F WCI  29
KEMMERER, WY     N/A     36  36 100 CALM      29.86R

$$




USA.gov is the U.S. government's official web portal to all federal, state and local government web resources and services.